Flag for Colombia Weather past 2 weeks in Barranquilla, Colombia

Now
82 °F

Fog.


Feels Like: 94 °F
Forecast: 80 / 90 °F
Wind: 7 mph from Southeast

Location: Barranquilla / Ernestocortissoz

Current Time: Jul 31, 2014 at 8:51:04 AM

Latest Report: Jul 31, 2014 at 8:00 AM


Visibility: 2 mi

Pressure: 29.86 "Hg

Humidity: 94%

Dew point: 81 °F

Location of BarranquillaLocation

Historic Weather in Barranquilla — Graph

°F

Barranquilla temperature yesterday

Maximum temperature yesterday: 95 °F (at 12:00 PM)
Minimum temperature yesterday: 79 °F (at 6:00 AM)
Average temperature yesterday: 85 °F

Past Weeks' High & Low Weather Summary

 TemperatureHumidityPressure
High99 °F (Jul 20, 12:00 PM)100% (Jul 28, 3:00 AM)29.95 "Hg (Jul 28, 3:00 AM)
Low77 °F (Jul 27, 4:00 AM)18% (Jul 24, 11:00 AM)29.70 "Hg (Jul 24, 2:00 PM)
Average85 °F79%29.82 "Hg
* Reported Jul 16 7:00 AM — Jul 31 7:00 AM, Barranquilla, Weather by CustomWeather, © 2014

Note: Actual official high and low records may vary slightly from our data, if they occured in-between our weather recording intervals... More about our weather records

Advertising

Barranquilla weather history for previous 24 hours

 ConditionsComfort  
Time TempWeatherWind HumidityBarometerVisibility
7:00 AM
Jul 31
81 °FPartly sunny.5 mph94%29.84 "Hg4 mi
6:00 AM81 °FFog.7 mph94%29.83 "Hg3 mi
5:00 AM81 °FClear.9 mph94%29.80 "Hg10 mi
4:00 AM81 °FClear.8 mph94%29.80 "Hg10 mi
3:00 AM81 °FPassing clouds.8 mph94%29.81 "HgN/A
2:00 AM81 °FPassing clouds.5 mph94%29.83 "HgN/A
1:00 AM81 °FPassing clouds.9 mph94%29.83 "HgN/A
12:00 AM81 °FPassing clouds.13 mph94%29.84 "HgN/A
11:00 PM
Jul 30
82 °FClear.14 mph89%29.85 "Hg10 mi
10:00 PM82 °FClear.13 mph84%29.86 "Hg10 mi
9:00 PM82 °FPassing clouds.5 mph89%29.85 "HgN/A
8:00 PM82 °FPassing clouds.9 mph84%29.83 "HgN/A
7:00 PM82 °FPartly cloudy.7 mph84%29.82 "HgN/A
6:00 PM86 °FScattered clouds.10 mph75%29.80 "HgN/A
5:00 PM88 °FScattered clouds.7 mph70%29.80 "HgN/A
4:00 PM91 °FScattered clouds.10 mph63%29.79 "HgN/A
3:00 PM91 °FScattered clouds.14 mph63%29.82 "HgN/A
2:00 PM91 °FScattered clouds.9 mph67%29.82 "HgN/A
1:00 PM93 °FScattered clouds.12 mph63%29.85 "HgN/A
12:00 PM95 °FScattered clouds.6 mph56%29.87 "HgN/A
11:00 AM93 °FScattered clouds.3 mph59%29.88 "HgN/A
10:00 AM90 °FScattered clouds.6 mph67%29.91 "HgN/A
9:00 AM86 °FScattered clouds.13 mph79%29.92 "Hg5 mi
8:00 AM82 °FScattered clouds.5 mph89%29.90 "Hg3 mi
Weather by CustomWeather, © 2014

See weather overviewHow to use our weather pages